IW2DGQ-3 Weather Reports


Display with metric or nautical units.
time (UTC)temp
F
wind
direction
speed
MPH
gust
MPH
rain 1hr
in
rain 24hr
in
rain mn
in
humidity
%
barometer
mb
20260906110050 91 0.0 0.0 0.00 0.00 0.00 46 1022.4
20260906104050 92 0.0 0.0 0.00 0.00 0.00 46 1022.5
20260906102050 91 0.0 0.0 0.00 0.00 0.00 46 1022.7
20260906100049 90 0.0 0.0 0.00 0.00 0.00 47 1022.8
20260906094049 89 0.0 0.0 0.00 0.00 0.00 48 1022.8
20260906092049 90 0.0 0.0 0.00 0.00 0.00 45 1022.9
20260906090048 91 0.0 0.0 0.00 0.00 0.00 43 1022.9
20260906084048 91 0.0 0.0 0.00 0.00 0.00 43 1022.9
20260906082048 90 0.0 0.0 0.00 0.00 0.00 41 1022.8
20260906080047 100 0.0 0.0 0.00 0.00 0.00 34 1022.7
20260906074047 101 0.0 0.0 0.00 0.00 0.00 34 1022.6
20260906072047 100 0.0 0.0 0.00 0.00 0.00 36 1022.6
20260906070046 98 0.0 0.0 0.00 0.00 0.00 36 1022.3
20260906064046 97 0.0 0.0 0.00 0.00 0.00 39 1022.2
20260906062046 96 0.0 0.0 0.00 0.00 0.00 44 1022.2
20260906060045 88 0.0 0.0 0.00 0.00 0.00 55 1022.0
20260906054045 78 0.0 0.0 0.00 0.00 0.00 59 1021.9
20260906052045 79 0.0 0.0 0.00 0.00 0.00 67 1021.6
20260906050045 73 0.0 0.0 0.00 0.00 0.00 71 1021.3
20260906045725 73 0.0 0.0 0.00 0.00 0.00 72 1021.3
20260906043725 72 0.0 0.0 0.00 0.00 0.00 74 1021.1
20260906041724 73 0.0 0.0 0.00 0.00 0.00 75 1020.9
20260906035724 73 0.0 0.0 0.00 0.00 0.00 75 1020.7
20260906033724 74 0.0 0.0 0.00 0.00 0.00 76 1020.6
20260906031724 74 0.0 0.0 0.00 0.00 0.00 77 1020.5
20260906025723 74 0.0 0.0 0.00 0.00 0.00 76 1020.3
20260906023723 74 0.0 0.0 0.00 0.00 0.00 75 1020.4
20260906021723 75 0.0 0.0 0.00 0.00 0.00 74 1020.3
20260906015722 75 0.0 0.0 0.00 0.00 0.00 73 1020.1
20260906013722 75 0.0 0.0 0.00 0.00 0.00 74 1020.0
20260906011722 75 0.0 0.0 0.00 0.00 0.00 74 1019.9
20260906005721 75 0.0 0.0 0.00 0.00 0.00 74 1019.9
20260906003721 75 0.0 0.0 0.00 0.00 0.00 73 1019.8
20260906001721 75 0.0 0.0 0.00 0.00 0.00 72 1019.8
20260905235720 75 0.0 0.0 0.00 0.00 0.00 71 1019.9
20260905233720 75 0.0 0.0 0.00 0.00 0.00 69 1019.7
20260905231720 76 0.0 0.0 0.00 0.00 0.00 66 1019.7
20260905225719 76 0.0 0.0 0.00 0.00 0.00 65 1019.4
20260905223719 76 0.0 0.0 0.00 0.00 0.00 65 1019.3
20260905221719 77 0.0 0.0 0.00 0.00 0.00 64 1019.2
20260905215718 77 0.0 0.0 0.00 0.00 0.00 64 1018.9
20260905213718 78 0.0 0.0 0.00 0.00 0.00 62 1018.7
20260905211718 78 0.0 0.0 0.00 0.00 0.00 62 1018.4
20260905205717 78 0.0 0.0 0.00 0.00 0.00 59 1018.2
20260905203717 79 0.0 0.0 0.00 0.00 0.00 55 1018.3
20260905201717 80 0.0 0.0 0.00 0.00 0.00 53 1018.1
20260905195717 81 0.0 0.0 0.00 0.00 0.00 51 1017.9
20260905193716 81 0.0 0.0 0.00 0.00 0.00 50 1017.7
20260905191716 82 0.0 0.0 0.00 0.00 0.00 49 1017.3
20260905185716 83 0.0 0.0 0.00 0.00 0.00 47 1017.1
20260905183715 83 0.0 0.0 0.00 0.00 0.00 47 1016.7
20260905181715 84 0.0 0.0 0.00 0.00 0.00 45 1016.4
20260905175715 86 0.0 0.0 0.00 0.00 0.00 44 1016.3
20260905173714 87 0.0 0.0 0.00 0.00 0.00 43 1016.1
20260905171714 89 0.0 0.0 0.00 0.00 0.00 41 1016.0
20260905165714 91 0.0 0.0 0.00 0.00 0.00 38 1016.0
20260905163713 93 0.0 0.0 0.00 0.00 0.00 37 1015.9
20260905161713 94 0.0 0.0 0.00 0.00 0.00 36 1015.7
20260905155713 95 0.0 0.0 0.00 0.00 0.00 35 1015.8
20260905153712 96 0.0 0.0 0.00 0.00 0.00 34 1015.6
20260905151712 97 0.0 0.0 0.00 0.00 0.00 34 1015.6
20260905145712 97 0.0 0.0 0.00 0.00 0.00 33 1015.7
20260905143711 97 0.0 0.0 0.00 0.00 0.00 33 1015.8
20260905141711 98 0.0 0.0 0.00 0.00 0.00 33 1015.9
20260905135711 98 0.0 0.0 0.00 0.00 0.00 33 1016.1
20260905133710 97 0.0 0.0 0.00 0.00 0.00 33 1016.3
20260905131710 97 0.0 0.0 0.00 0.00 0.00 33 1016.5
20260905125710 96 0.0 0.0 0.00 0.00 0.00 33 1016.8
20260905123709 97 0.0 0.0 0.00 0.00 0.00 33 1017.0
20260905121709 96 0.0 0.0 0.00 0.00 0.00 33 1017.2
20260905121437 96 0.0 0.0 0.00 0.00 0.00 33 1017.2
20260905115437 95 0.0 0.0 0.00 0.00 0.00 34 1017.3
20260905113437 95 0.0 0.0 0.00 0.00 0.00 34 1017.5
20260905111436 96 0.0 0.0 0.00 0.00 0.00 35 1017.4